La Porte, IN

9:16 AM CDT on September 26, 2016 (GMT -0500)
La Porte Municipal

Weather History for KPPO - June, 2013

Change the Weather History Date:

Monday, June 17, 2013

  Actual Average (KVPZ) Record (KVPZ)
Temperature  
Mean Temperature 72 °F 70 °F  
Max Temperature 84 °F 80 °F 91 °F (2007)
Min Temperature 59 °F 59 °F 47 °F (1999)
Degree Days  
Heating Degree Days 0 1  
Month to date heating degree days 35  
Since 1 June heating degree days 35  
Since 1 July heating degree days 6314  
Cooling Degree Days 6 6  
Month to date cooling degree days 74  
Year to date cooling degree days 121  
Since 1 June cooling degree days 74  
Growing Degree Days 22 (Base 50)    
Moisture  
Dew Point 58 °F    
Average Humidity 65    
Maximum Humidity 100    
Minimum Humidity 30    
Precipitation  
Precipitation 0.02 in 0.11 in 0.43 in (2012)
Month to date precipitation 2.20  
Year to date precipitation 15.18  
Sea Level Pressure  
Sea Level Pressure 29.93 in    
Wind  
Wind Speed 2 mph (WSW)    
Max Wind Speed 14 mph    
Max Gust Speed 20 mph    
Visibility 8 miles    
Events Fog , Rain    
T = Trace of Precipitation, MM = Missing Value Source: NWS Daily Summary

Daily Weather History Graph

Daily Weather History Graph

Search for Another Location

Airport or City:

Trip Planner

Search our weather history database for the weather conditions in past years. The results will help you decide how hot, cold, wet, or windy it might be!

Date:

Astronomy

Jun. 17, 2013 Rise Set
Actual Time 5:12 AM CDT 8:23 PM CDT
Civil Twilight 4:38 AM CDT 8:57 PM CDT
Nautical Twilight 3:54 AM CDT 9:41 PM CDT
Astronomical Twilight 3:02 AM CDT 10:34 PM CDT
Moon 1:57 PM CDT (6/17) 12:52 AM CDT (6/17)
Length of Visible Light 16h 19m
Length of Day
15h 11m
First Quarter, 60% of the Moon is Illuminated
Jun 17
First Quarter
Jun 23
Full
Jun 29
Last Quarter
Jul 8
New
Jul 15
First Quarter

Hourly Weather History & Observations

Time (CDT) Temp. Heat Index Dew Point Humidity Pressure Visibility Wind Dir Wind Speed Gust Speed Precip Events Conditions
12:15 AM 66.0 °F - 65.7 °F 99% 29.94 in 10.0 mi Calm Calm - N/A   Clear
12:35 AM 64.4 °F - 63.9 °F 98% 29.93 in 7.0 mi Calm Calm - N/A   Clear
12:55 AM 63.5 °F - 63.5 °F 100% 29.93 in 7.0 mi Calm Calm - N/A   Clear
1:15 AM 63.5 °F - 63.5 °F 100% 29.93 in 10.0 mi Calm Calm - N/A   Mostly Cloudy
1:35 AM 64.4 °F - 64.4 °F 100% 29.94 in 7.0 mi Calm Calm - N/A   Scattered Clouds
1:55 AM 64.0 °F - 64.0 °F 100% 29.94 in 5.0 mi Calm Calm - N/A   Clear
2:15 AM 63.7 °F - 63.7 °F 100% 29.93 in 5.0 mi Calm Calm - N/A   Scattered Clouds
2:35 AM 62.8 °F - 62.8 °F 100% 29.92 in 5.0 mi Calm Calm - N/A   Clear
2:55 AM 62.8 °F - 62.8 °F 100% 29.92 in 5.0 mi Calm Calm - N/A   Clear
3:15 AM 61.2 °F - 61.2 °F 100% 29.92 in 3.0 mi Calm Calm - N/A   Mist
3:35 AM 61.7 °F - 61.7 °F 100% 29.93 in 3.0 mi West 3.5 mph - N/A   Scattered Clouds
3:55 AM 63.0 °F - 63.0 °F 100% 29.93 in 4.0 mi West 3.5 mph - N/A   Clear
4:15 AM 62.4 °F - 62.4 °F 100% 29.94 in 4.0 mi Calm Calm - N/A   Clear
4:35 AM 63.0 °F - 63.0 °F 100% 29.94 in 4.0 mi Calm Calm - N/A   Clear
4:55 AM 61.2 °F - 61.2 °F 100% 29.94 in 0.8 mi Calm Calm - N/A   Mist
5:15 AM 61.9 °F - 61.9 °F 100% 29.93 in 1.2 mi Calm Calm - N/A   Mist
5:35 AM 59.9 °F - 59.9 °F 100% 29.94 in 0.2 mi Calm Calm - N/A Fog Fog
5:55 AM 60.1 °F - 60.1 °F 100% 29.93 in 0.2 mi Calm Calm - N/A Fog Fog
6:15 AM 62.1 °F - 62.1 °F 100% 29.94 in 2.5 mi Calm Calm - N/A   Clear
6:35 AM 63.5 °F - 63.5 °F 100% 29.95 in 2.5 mi Calm Calm - N/A   Clear
6:55 AM 65.3 °F - 65.3 °F 100% 29.95 in 5.0 mi Calm Calm - N/A   Clear
7:15 AM 65.5 °F - 65.5 °F 100% 29.95 in 5.0 mi Calm Calm - N/A   Clear
7:35 AM 67.8 °F - 67.8 °F 100% 29.95 in 7.0 mi Calm Calm - N/A   Clear
7:55 AM 70.2 °F - 66.7 °F 89% 29.95 in 10.0 mi Calm Calm - N/A   Clear
8:15 AM 71.8 °F - 64.8 °F 78% 29.95 in 10.0 mi Calm Calm - N/A   Clear
8:35 AM 73.6 °F - 63.9 °F 72% 29.96 in 10.0 mi Calm Calm - N/A   Clear
8:55 AM 75.2 °F - 63.7 °F 67% 29.96 in 10.0 mi Calm Calm - N/A   Clear
9:15 AM 76.6 °F - 62.2 °F 61% 29.96 in 10.0 mi Calm Calm - N/A   Clear
9:35 AM 77.9 °F - 61.0 °F 56% 29.96 in 10.0 mi WSW 4.6 mph - N/A   Clear
9:55 AM 79.0 °F - 56.7 °F 46% 29.96 in 10.0 mi WSW 3.5 mph - N/A   Clear
10:15 AM 79.9 °F - 53.4 °F 40% 29.96 in 10.0 mi West 4.6 mph - N/A   Clear
10:35 AM 80.6 °F 80.4 °F 54.0 °F 40% 29.96 in 10.0 mi SW 3.5 mph - N/A   Clear
10:55 AM 81.0 °F 80.5 °F 54.0 °F 39% 29.94 in 10.0 mi Calm Calm - N/A   Clear
11:15 AM 81.5 °F 81.1 °F 55.6 °F 41% 29.94 in 10.0 mi SSW 6.9 mph - N/A   Clear
11:35 AM 82.2 °F 81.4 °F 54.5 °F 38% 29.94 in 10.0 mi SSW 5.8 mph - N/A   Clear
11:55 AM 82.6 °F - 52.3 °F 35% 29.95 in 10.0 mi South 4.6 mph - N/A   Clear
12:15 PM 83.3 °F - 50.7 °F 32% 29.95 in 10.0 mi WSW 5.8 mph - N/A   Clear
12:35 PM 82.4 °F - 50.9 °F 33% 29.94 in 10.0 mi SW 4.6 mph 9.2 mph N/A   Clear
12:55 PM 83.7 °F - 52.0 °F 33% 29.94 in 10.0 mi West 9.2 mph - N/A   Clear
1:15 PM 83.8 °F 82.4 °F 53.8 °F 35% 29.94 in 10.0 mi WSW 6.9 mph - N/A   Clear
1:35 PM 83.8 °F - 49.1 °F 30% 29.94 in 10.0 mi SW 5.8 mph - N/A   Clear
1:55 PM 83.8 °F - 52.3 °F 34% 29.94 in 10.0 mi WNW 6.9 mph - N/A   Scattered Clouds
2:15 PM 82.9 °F 81.9 °F 54.5 °F 37% 29.94 in 10.0 mi WSW 11.5 mph - N/A   Scattered Clouds
2:35 PM 83.7 °F 82.4 °F 53.8 °F 36% 29.94 in 10.0 mi SW 10.4 mph - N/A   Scattered Clouds
2:55 PM 83.5 °F - 52.9 °F 35% 29.94 in 10.0 mi WSW 9.2 mph - N/A   Clear
3:15 PM 83.8 °F - 52.2 °F 33% 29.93 in 10.0 mi West 6.9 mph - N/A   Clear
3:35 PM 84.4 °F - 52.0 °F 33% 29.91 in 10.0 mi SW 6.9 mph - N/A   Clear
3:55 PM 84.2 °F - 52.5 °F 33% 29.91 in 10.0 mi WSW 5.8 mph - N/A   Clear
4:15 PM 83.7 °F - 50.5 °F 32% 29.90 in 10.0 mi West 6.9 mph - N/A   Clear
4:35 PM 83.5 °F - 51.4 °F 33% 29.90 in 10.0 mi WSW 6.9 mph - N/A   Clear
4:55 PM 83.3 °F - 50.9 °F 32% 29.90 in 10.0 mi West 8.1 mph - N/A   Clear
5:15 PM 82.8 °F 81.6 °F 53.1 °F 36% 29.89 in 10.0 mi WSW 4.6 mph - N/A   Clear
5:35 PM 82.4 °F 81.4 °F 53.8 °F 37% 29.89 in 10.0 mi West 5.8 mph - N/A   Clear
5:55 PM 82.8 °F 81.6 °F 53.4 °F 36% 29.89 in 10.0 mi WSW 6.9 mph - N/A   Clear
6:15 PM 82.6 °F 81.6 °F 53.6 °F 37% 29.89 in 10.0 mi SW 6.9 mph - N/A   Clear
6:35 PM 82.2 °F 81.3 °F 53.4 °F 37% 29.89 in 10.0 mi SW 8.1 mph - N/A   Clear
6:55 PM 79.9 °F - 54.1 °F 41% 29.89 in 10.0 mi SW 8.1 mph - N/A   Clear
7:15 PM 79.7 °F - 53.4 °F 40% 29.89 in 10.0 mi SW 5.8 mph - N/A   Scattered Clouds
7:35 PM 77.9 °F - 56.7 °F 48% 29.89 in 10.0 mi Calm Calm - N/A Rain Light Rain
7:55 PM 77.0 °F - 58.8 °F 53% 29.89 in 10.0 mi ENE 5.8 mph - N/A   Overcast
8:15 PM 74.7 °F - 59.4 °F 59% 29.88 in 10.0 mi East 6.9 mph - N/A   Scattered Clouds
8:35 PM 75.2 °F - 58.5 °F 56% 29.88 in 10.0 mi Calm Calm - N/A   Clear
8:55 PM 74.3 °F - 60.3 °F 61% 29.89 in 10.0 mi Calm Calm - N/A   Mostly Cloudy
9:15 PM 71.4 °F - 59.5 °F 66% 29.91 in 10.0 mi NNW 8.1 mph - 0.02 in Rain Light Rain
9:35 PM 70.5 °F - 60.8 °F 71% 29.94 in 10.0 mi NW 8.1 mph - 0.02 in   Mostly Cloudy
9:55 PM 68.7 °F - 60.8 °F 76% 29.94 in 10.0 mi North 13.8 mph - 0.02 in   Scattered Clouds
10:15 PM 67.5 °F - 57.7 °F 71% 29.94 in 10.0 mi North 12.7 mph 19.6 mph N/A   Mostly Cloudy
10:35 PM 66.4 °F - 58.5 °F 76% 29.93 in 10.0 mi NNE 9.2 mph - N/A   Mostly Cloudy
10:55 PM 66.7 °F - 57.9 °F 73% 29.92 in 10.0 mi Calm Calm - N/A   Mostly Cloudy
11:15 PM 66.4 °F - 59.5 °F 79% 29.91 in 10.0 mi East 3.5 mph - N/A   Overcast
11:35 PM 66.2 °F - 59.4 °F 79% 29.92 in 10.0 mi Calm Calm - N/A   Mostly Cloudy
11:55 PM 66.2 °F - 59.0 °F 78% 29.92 in 10.0 mi NNE 4.6 mph - N/A   Overcast